EZY8404 LFPG-EGKK

Flight info

Callsign EZY8404
Flight time 0h 40m
Altitude 20000
Route OPALE DCT KESAX DCT KUNAV
Aircraft A20N/M-SDE2E3FGHIRWXY/LB1

Departure

Time 2026-05-08 21:21
Airport Charles de Gaulle International Airport (LFPG)

Arrival

Time 2026-05-08 22:01
Airport London Gatwick Airport (EGKK)
Time Latitude Longitude Altitude Speed Heading
2026-05-08 20:29 49.00690 2.56108 355 ft 0 kts 356°
2026-05-08 20:58 49.00675 2.56110 363 ft 3 kts 352°
2026-05-08 20:59 49.00655 2.56116 356 ft 3 kts 338°
2026-05-08 20:59 49.00638 2.56131 360 ft 3 kts 306°
2026-05-08 20:59 49.00632 2.56147 360 ft 3 kts 268°
2026-05-08 20:59 49.00632 2.56159 355 ft 0 kts 263°
2026-05-08 21:04 49.00632 2.56149 360 ft 3 kts 264°
2026-05-08 21:05 49.00627 2.56100 355 ft 7 kts 260°
2026-05-08 21:05 49.00608 2.56015 353 ft 10 kts 234°
2026-05-08 21:05 49.00571 2.55901 355 ft 13 kts 259°
2026-05-08 21:05 49.00566 2.55792 360 ft 0 kts 265°
2026-05-08 21:07 49.00566 2.55790 360 ft 1 kts 265°
2026-05-08 21:07 49.00560 2.55703 357 ft 14 kts 266°
2026-05-08 21:07 49.00556 2.55619 360 ft 0 kts 264°
2026-05-08 21:12 49.00556 2.55618 360 ft 0 kts 264°
2026-05-08 21:13 49.00552 2.55562 357 ft 13 kts 264°
2026-05-08 21:13 49.00588 2.55409 360 ft 19 kts 341°
2026-05-08 21:13 49.00729 2.55352 357 ft 23 kts 346°
2026-05-08 21:13 49.00898 2.55271 355 ft 28 kts 343°
2026-05-08 21:14 49.01080 2.55197 358 ft 26 kts 345°
2026-05-08 21:14 49.01258 2.55187 358 ft 27 kts 20°
2026-05-08 21:14 49.01432 2.55183 360 ft 26 kts 345°
2026-05-08 21:14 49.01612 2.55153 355 ft 27 kts 356°
2026-05-08 21:15 49.01781 2.55135 363 ft 16 kts 355°
2026-05-08 21:15 49.01858 2.55040 355 ft 17 kts 272°
2026-05-08 21:15 49.01846 2.54849 355 ft 19 kts 264°
2026-05-08 21:15 49.01833 2.54631 355 ft 22 kts 265°
2026-05-08 21:16 49.01823 2.54388 354 ft 24 kts 268°
2026-05-08 21:16 49.01810 2.54124 357 ft 26 kts 268°
2026-05-08 21:16 49.01794 2.53844 358 ft 27 kts 265°
2026-05-08 21:16 49.01789 2.53768 360 ft 2 kts 265°
2026-05-08 21:17 49.01787 2.53726 362 ft 6 kts 266°
2026-05-08 21:17 49.01784 2.53643 354 ft 10 kts 266°
2026-05-08 21:17 49.01778 2.53515 358 ft 16 kts 266°
2026-05-08 21:17 49.01765 2.53286 354 ft 26 kts 264°
2026-05-08 21:18 49.01748 2.52967 354 ft 33 kts 266°
2026-05-08 21:18 49.01733 2.52664 354 ft 15 kts 265°
2026-05-08 21:18 49.01722 2.52489 354 ft 18 kts 265°
2026-05-08 21:18 49.01711 2.52281 358 ft 21 kts 265°
2026-05-08 21:19 49.01708 2.52230 354 ft 3 kts 265°
2026-05-08 21:19 49.01711 2.52173 355 ft 8 kts 289°
2026-05-08 21:19 49.01775 2.52137 354 ft 12 kts 359°
2026-05-08 21:19 49.01873 2.52126 354 ft 16 kts 355°
2026-05-08 21:20 49.02000 2.52110 357 ft 20 kts 355°
2026-05-08 21:20 49.02110 2.52207 355 ft 22 kts 86°
2026-05-08 21:20 49.02135 2.52649 359 ft 72 kts 86°
2026-05-08 21:20 49.02193 2.53707 356 ft 125 kts 85°
2026-05-08 21:21 49.02271 2.55210 511 ft 148 kts 86°
2026-05-08 21:21 49.02325 2.56761 1072 ft 147 kts 87°
2026-05-08 21:21 49.02354 2.58325 1651 ft 148 kts 91°
2026-05-08 21:21 49.02372 2.59904 2159 ft 154 kts 87°
2026-05-08 21:22 49.02480 2.61605 2454 ft 174 kts 85°
2026-05-08 21:22 49.02623 2.63555 2777 ft 197 kts 85°
2026-05-08 21:22 49.02770 2.65773 3199 ft 223 kts 85°
2026-05-08 21:22 49.02915 2.68258 3796 ft 247 kts 86°
2026-05-08 21:23 49.03062 2.70940 4595 ft 259 kts 86°
2026-05-08 21:23 49.03316 2.73683 5557 ft 266 kts 73°
2026-05-08 21:23 49.04261 2.76131 6506 ft 275 kts 46°
2026-05-08 21:23 49.05863 2.77743 7407 ft 281 kts 19°
2026-05-08 21:24 49.07801 2.78133 8392 ft 283 kts 353°
2026-05-08 21:24 49.09661 2.77222 9343 ft 285 kts 329°
2026-05-08 21:24 49.11312 2.75525 9845 ft 286 kts 321°
2026-05-08 21:24 49.12877 2.73635 10020 ft 287 kts 320°
2026-05-08 21:25 49.14459 2.71771 10075 ft 288 kts 322°
2026-05-08 21:25 49.16055 2.70009 10077 ft 290 kts 323°
2026-05-08 21:25 49.17815 2.68159 10079 ft 324 kts 324°
2026-05-08 21:25 49.19704 2.66224 10077 ft 332 kts 324°
2026-05-08 21:26 49.21578 2.64273 10076 ft 317 kts 323°
2026-05-08 21:26 49.23355 2.62407 10077 ft 300 kts 323°
2026-05-08 21:26 49.25000 2.60609 10051 ft 284 kts 322°
2026-05-08 21:26 49.26613 2.58827 9996 ft 287 kts 322°
2026-05-08 21:27 49.28259 2.57016 10240 ft 295 kts 323°
2026-05-08 21:27 49.29998 2.55108 10510 ft 320 kts 323°
2026-05-08 21:27 49.31857 2.53070 11034 ft 335 kts 323°
2026-05-08 21:27 49.33298 2.51495 11655 ft 339 kts 323°
2026-05-08 21:28 49.35278 2.49328 12529 ft 344 kts 323°
2026-05-08 21:28 49.37191 2.47236 13349 ft 349 kts 323°
2026-05-08 21:28 49.39153 2.45090 14142 ft 354 kts 323°
2026-05-08 21:28 49.41171 2.42877 14887 ft 358 kts 323°
2026-05-08 21:29 49.43208 2.40639 15635 ft 363 kts 323°
2026-05-08 21:29 49.45277 2.38362 16374 ft 368 kts 323°
2026-05-08 21:29 49.47369 2.36056 17101 ft 372 kts 323°
2026-05-08 21:29 49.49484 2.33723 17805 ft 377 kts 323°
2026-05-08 21:30 49.51633 2.31348 18498 ft 382 kts 323°
2026-05-08 21:30 49.53806 2.28945 18905 ft 385 kts 323°
2026-05-08 21:30 49.55991 2.26525 19058 ft 386 kts 323°
2026-05-08 21:30 49.58164 2.24116 19096 ft 385 kts 323°
2026-05-08 21:31 49.60344 2.21697 19098 ft 385 kts 323°
2026-05-08 21:31 49.62526 2.19272 19095 ft 386 kts 323°
2026-05-08 21:31 49.64703 2.16850 19094 ft 386 kts 323°
2026-05-08 21:31 49.66880 2.14424 19091 ft 386 kts 323°
2026-05-08 21:32 49.68798 2.12283 19094 ft 386 kts 323°
2026-05-08 21:32 49.70601 2.10270 19091 ft 386 kts 323°
2026-05-08 21:32 49.72594 2.08042 19090 ft 386 kts 323°
2026-05-08 21:32 49.74775 2.05601 19091 ft 386 kts 323°
2026-05-08 21:33 49.76950 2.03163 19088 ft 386 kts 323°
2026-05-08 21:33 49.79122 2.00726 19086 ft 387 kts 323°
2026-05-08 21:33 49.81272 1.98312 19090 ft 387 kts 323°
2026-05-08 21:33 49.83447 1.95865 19087 ft 386 kts 323°
2026-05-08 21:34 49.85624 1.93414 19089 ft 386 kts 323°
2026-05-08 21:34 49.87823 1.90936 19092 ft 386 kts 323°
2026-05-08 21:34 49.89973 1.88510 19093 ft 386 kts 323°
2026-05-08 21:34 49.92123 1.85996 19091 ft 386 kts 321°
2026-05-08 21:35 49.94224 1.83397 19092 ft 386 kts 320°
2026-05-08 21:35 49.96314 1.80778 19094 ft 387 kts 320°
2026-05-08 21:35 49.98409 1.78160 19093 ft 387 kts 321°
2026-05-08 21:35 50.00509 1.75548 19092 ft 386 kts 321°
2026-05-08 21:36 50.02619 1.72934 19095 ft 387 kts 321°
2026-05-08 21:36 50.04704 1.70353 19093 ft 387 kts 321°
2026-05-08 21:36 50.06807 1.67748 19096 ft 387 kts 321°
2026-05-08 21:36 50.08894 1.65092 19093 ft 387 kts 319°
2026-05-08 21:37 50.10923 1.62338 19094 ft 387 kts 318°
2026-05-08 21:37 50.12937 1.59557 19095 ft 387 kts 317°
2026-05-08 21:37 50.14959 1.56770 19095 ft 387 kts 318°
2026-05-08 21:37 50.16982 1.53996 19093 ft 387 kts 318°
2026-05-08 21:38 50.19014 1.51221 19099 ft 387 kts 318°
2026-05-08 21:38 50.21047 1.48448 19097 ft 387 kts 318°
2026-05-08 21:38 50.23080 1.45675 19097 ft 388 kts 318°
2026-05-08 21:38 50.25084 1.42939 19097 ft 387 kts 318°
2026-05-08 21:39 50.27112 1.40167 19100 ft 388 kts 318°
2026-05-08 21:39 50.29139 1.37392 19099 ft 388 kts 318°
2026-05-08 21:39 50.31175 1.34604 19103 ft 388 kts 317°
2026-05-08 21:39 50.33205 1.31818 19099 ft 388 kts 317°
2026-05-08 21:40 50.34964 1.29402 19100 ft 388 kts 317°
2026-05-08 21:40 50.36994 1.26611 19100 ft 388 kts 317°
2026-05-08 21:40 50.39029 1.23810 19103 ft 388 kts 317°
2026-05-08 21:41 50.43092 1.18205 19105 ft 388 kts 317°
2026-05-08 21:41 50.45097 1.15435 19106 ft 388 kts 317°
2026-05-08 21:41 50.47129 1.12624 19105 ft 389 kts 317°
2026-05-08 21:41 50.49163 1.09806 19106 ft 389 kts 317°
2026-05-08 21:42 50.51190 1.06983 19105 ft 389 kts 315°
2026-05-08 21:42 50.53064 1.03929 19107 ft 388 kts 311°
2026-05-08 21:42 50.54904 1.00815 19112 ft 388 kts 311°
2026-05-08 21:42 50.56751 0.97709 19109 ft 388 kts 311°
2026-05-08 21:43 50.58598 0.94603 19113 ft 388 kts 311°
2026-05-08 21:43 50.60419 0.91534 19112 ft 388 kts 311°
2026-05-08 21:43 50.62259 0.88426 19115 ft 388 kts 311°
2026-05-08 21:43 50.64097 0.85316 19114 ft 387 kts 311°
2026-05-08 21:44 50.65935 0.82201 19117 ft 387 kts 311°
2026-05-08 21:44 50.67743 0.79072 18929 ft 383 kts 308°
2026-05-08 21:44 50.69389 0.75862 18094 ft 384 kts 307°
2026-05-08 21:44 50.71081 0.72540 16732 ft 392 kts 307°
2026-05-08 21:45 50.72220 0.70305 15732 ft 398 kts 307°
2026-05-08 21:45 50.73977 0.66854 14174 ft 408 kts 308°
2026-05-08 21:45 50.75749 0.63372 13145 ft 401 kts 308°
2026-05-08 21:45 50.77445 0.60041 12790 ft 376 kts 308°
2026-05-08 21:46 50.79053 0.56881 11938 ft 367 kts 308°
2026-05-08 21:46 50.80609 0.53811 10584 ft 374 kts 308°
2026-05-08 21:46 50.82022 0.51019 9617 ft 374 kts 308°
2026-05-08 21:46 50.83664 0.47774 8881 ft 360 kts 308°
2026-05-08 21:47 50.85143 0.44852 8456 ft 342 kts 308°
2026-05-08 21:47 50.86582 0.42006 8214 ft 321 kts 308°
2026-05-08 21:47 50.87893 0.39412 8062 ft 299 kts 308°
2026-05-08 21:47 50.89143 0.36936 8012 ft 275 kts 308°
2026-05-08 21:48 50.90289 0.34664 8015 ft 251 kts 309°
2026-05-08 21:48 50.91405 0.32612 8025 ft 248 kts 311°
2026-05-08 21:48 50.92548 0.30559 8024 ft 247 kts 311°
2026-05-08 21:48 50.93673 0.28541 8026 ft 247 kts 311°
2026-05-08 21:49 50.94522 0.27020 8033 ft 249 kts 311°
2026-05-08 21:49 50.95670 0.24963 8027 ft 247 kts 311°
2026-05-08 21:49 50.96808 0.22925 8030 ft 246 kts 311°
2026-05-08 21:49 50.97947 0.20886 8033 ft 247 kts 311°
2026-05-08 21:50 50.99092 0.18842 8030 ft 247 kts 311°
2026-05-08 21:50 51.00231 0.16807 8033 ft 247 kts 310°
2026-05-08 21:50 51.01057 0.14458 8033 ft 246 kts 282°
2026-05-08 21:50 51.01200 0.11768 7967 ft 243 kts 271°
2026-05-08 21:51 51.01252 0.09085 7697 ft 243 kts 271°
2026-05-08 21:51 51.01301 0.06430 7312 ft 243 kts 271°
2026-05-08 21:51 51.01348 0.03756 7088 ft 242 kts 271°
2026-05-08 21:51 51.01394 0.01066 7007 ft 245 kts 271°
2026-05-08 21:52 51.01441 -0.01647 7000 ft 244 kts 271°
2026-05-08 21:52 51.01486 -0.04324 6868 ft 241 kts 271°
2026-05-08 21:52 51.01530 -0.06998 6521 ft 242 kts 271°
2026-05-08 21:52 51.01573 -0.09678 6122 ft 242 kts 271°
2026-05-08 21:53 51.01622 -0.12311 5729 ft 242 kts 271°
2026-05-08 21:53 51.01674 -0.14967 5350 ft 240 kts 271°
2026-05-08 21:53 51.01728 -0.17618 4983 ft 239 kts 271°
2026-05-08 21:53 51.01783 -0.20255 4608 ft 239 kts 271°
2026-05-08 21:54 51.01838 -0.22888 4246 ft 238 kts 271°
2026-05-08 21:54 51.01893 -0.25510 3887 ft 237 kts 271°
2026-05-08 21:54 51.01951 -0.28116 3528 ft 236 kts 271°
2026-05-08 21:54 51.02010 -0.30716 3176 ft 235 kts 271°
2026-05-08 21:55 51.02064 -0.33299 3029 ft 237 kts 271°
2026-05-08 21:55 51.02119 -0.35883 2998 ft 236 kts 271°
2026-05-08 21:55 51.02173 -0.38434 2991 ft 236 kts 271°
2026-05-08 21:56 51.02875 -0.43374 2990 ft 237 kts 308°
2026-05-08 21:56 51.04163 -0.44929 2994 ft 227 kts 341°
2026-05-08 21:56 51.05622 -0.45596 2994 ft 210 kts 347°
2026-05-08 21:56 51.06986 -0.46165 2988 ft 195 kts 348°
2026-05-08 21:57 51.08316 -0.46181 3008 ft 195 kts 14°
2026-05-08 21:57 51.09492 -0.45258 3003 ft 189 kts 39°
2026-05-08 21:57 51.10525 -0.43971 2989 ft 187 kts 45°
2026-05-08 21:57 51.11160 -0.42220 2997 ft 187 kts 73°
2026-05-08 21:58 51.11697 -0.40342 2790 ft 186 kts 52°
2026-05-08 21:58 51.12299 -0.38615 2634 ft 178 kts 76°
2026-05-08 21:58 51.12551 -0.36673 2332 ft 178 kts 81°
2026-05-08 21:58 51.12724 -0.34750 2115 ft 174 kts 87°
2026-05-08 21:59 51.12833 -0.32823 1801 ft 173 kts 83°
2026-05-08 21:59 51.13012 -0.31376 1643 ft 159 kts 77°
2026-05-08 21:59 51.13323 -0.29488 1514 ft 194 kts 78°
2026-05-08 21:59 51.13615 -0.27538 1253 ft 170 kts 77°
2026-05-08 22:00 51.13861 -0.25818 847 ft 165 kts 78°
2026-05-08 22:00 51.14116 -0.24126 654 ft 152 kts 78°
2026-05-08 22:00 51.14332 -0.22521 434 ft 142 kts 76°
2026-05-08 22:00 51.14541 -0.21057 296 ft 129 kts 78°
2026-05-08 22:01 51.14726 -0.19704 210 ft 118 kts 77°
2026-05-08 22:01 51.14843 -0.18821 214 ft 39 kts 77°
2026-05-08 22:01 51.14931 -0.18536 213 ft 29 kts 51°
2026-05-08 22:01 51.15015 -0.18367 211 ft 9 kts 51°
2026-05-08 22:02 51.15034 -0.18330 210 ft 0 kts 51°
2026-05-08 22:03 51.15036 -0.18327 210 ft 2 kts 52°
2026-05-08 22:03 51.15067 -0.18262 209 ft 12 kts 52°
2026-05-08 22:03 51.15148 -0.18197 205 ft 14 kts 349°
2026-05-08 22:03 51.15157 -0.18200 205 ft 0 kts 347°
2026-05-08 22:04 51.15166 -0.18204 205 ft 5 kts 346°
2026-05-08 22:04 51.15226 -0.18226 205 ft 11 kts 348°
2026-05-08 22:04 51.15304 -0.18251 207 ft 11 kts 348°
2026-05-08 22:05 51.15375 -0.18275 214 ft 10 kts 347°
2026-05-08 22:05 51.15441 -0.18299 215 ft 9 kts 348°
2026-05-08 22:05 51.15498 -0.18318 204 ft 8 kts 348°
2026-05-08 22:05 51.15550 -0.18335 204 ft 8 kts 348°
2026-05-08 22:06 51.15609 -0.18353 204 ft 9 kts 348°
2026-05-08 22:06 51.15654 -0.18295 209 ft 10 kts 76°
2026-05-08 22:06 51.15669 -0.18179 204 ft 11 kts 79°
2026-05-08 22:06 51.15686 -0.18052 204 ft 12 kts 78°
2026-05-08 22:07 51.15706 -0.17913 215 ft 13 kts 77°
2026-05-08 22:07 51.15720 -0.17814 211 ft 8 kts 75°
2026-05-08 22:07 51.15723 -0.17724 204 ft 8 kts 123°
2026-05-08 22:07 51.15685 -0.17708 204 ft 0 kts 171°
2026-05-08 22:08 51.15684 -0.17708 204 ft 1 kts 168°
2026-05-08 22:08 51.15667 -0.17702 215 ft 3 kts 168°
2026-05-08 22:08 51.15664 -0.17701 214 ft 0 kts 168°